Weather History for Raton, NM

Change the Weather History Date:

Thursday, December 5, 2013

  Actual Average (KTAD) Record (KTAD)
Temperature  
Mean Temperature 12 °F 33 °F  
Max Temperature 15 °F 47 °F 71 °F (2012)
Min Temperature 7 °F 18 °F -10 °F (1972)
Degree Days  
Heating Degree Days 54 32  
Month to date heating degree days 158  
Since 1 July heating degree days 1391  
Cooling Degree Days 0 0  
Month to date cooling degree days 0  
Year to date cooling degree days 719  
Moisture  
Dew Point 7 °F    
Average Humidity 81    
Maximum Humidity 88    
Minimum Humidity 68    
Precipitation  
Precipitation 0.03 in 0.02 in 0.29 in (1969)
Month to date precipitation 0.10  
Year to date precipitation 13.40  
Sea Level Pressure  
Sea Level Pressure 29.96 in    
Wind  
Wind Speed 9 mph (South)    
Max Wind Speed 15 mph    
Max Gust Speed -    
Visibility 4 miles    
Events Snow    
T = Trace of Precipitation, MM = Missing Value Source: NWS Daily Summary

Daily Weather History Graph

Daily Weather History Graph

Search for Another Location

Airport:

Trip Planner

Search our weather history database for the weather conditions in past years. The results will help you decide how hot, cold, wet, or windy it might be!

Date:

Astronomy

Dec. 05, 2013 Rise Set
Actual Time 6:55 AM MST 4:41 PM MST
Civil Twilight 6:27 AM MST 5:10 PM MST
Nautical Twilight 5:55 AM MST 5:42 PM MST
Astronomical Twilight 5:23 AM MST 6:13 PM MST
Moon 9:20 AM MST (12/5) 8:02 PM MST (12/5)
Length of Visible Light 10h 43m
Length of Day
9h 45m
Waxing Crescent, 11% of the Moon is Illuminated
Dec 5
Waxing Crescent
Dec 9
First Quarter
Dec 17
Full
Dec 25
Last Quarter
Jan 1
New

Hourly Weather History & Observations

Time (MST) Temp. Windchill Dew Point Humidity Pressure Visibility Wind Dir Wind Speed Gust Speed Precip Events Conditions
12:50 AM 15.8 °F 7.2 °F 6.8 °F 68% 29.88 in 10.0 mi East 5.8 mph - N/A   Overcast
12:53 AM 15.1 °F 7.7 °F 6.1 °F 68% 29.85 in 10.0 mi East 4.6 mph - N/A   Overcast
1:16 AM 15.1 °F 4.2 °F 6.1 °F 68% 29.87 in 10.0 mi East 8.1 mph - N/A   Overcast
1:30 AM 15.1 °F 5.2 °F 6.1 °F 68% 29.87 in 10.0 mi East 6.9 mph - N/A   Overcast
1:53 AM 15.1 °F 6.4 °F 6.1 °F 68% 29.83 in 10.0 mi East 5.8 mph - N/A   Overcast
2:53 AM 15.1 °F 4.2 °F 6.1 °F 68% 29.87 in 10.0 mi East 8.1 mph - N/A   Overcast
3:32 AM 14.0 °F 3.9 °F 6.1 °F 71% 29.90 in 10.0 mi East 6.9 mph - N/A   Overcast
3:53 AM 14.0 °F 5.1 °F 6.1 °F 71% 29.88 in 5.0 mi East 5.8 mph - 0.00 in Snow Light Snow
4:17 AM 14.0 °F 5.1 °F 7.0 °F 74% 29.89 in 2.5 mi ESE 5.8 mph - 0.00 in Snow Light Snow
4:45 AM 14.0 °F 5.1 °F 9.0 °F 80% 29.90 in 1.8 mi SSW 5.8 mph - 0.01 in Snow Light Snow
4:53 AM 14.0 °F 2.9 °F 10.0 °F 84% 29.97 in 1.8 mi SSW 8.1 mph - 0.01 in Snow Light Snow
5:09 AM 14.0 °F 2.9 °F 10.0 °F 84% 29.89 in 2.5 mi SSW 8.1 mph - 0.00 in Snow Light Snow
5:39 AM 12.9 °F 2.6 °F 10.0 °F 88% 29.90 in 3.0 mi SSW 6.9 mph - 0.00 in Snow Light Snow
5:53 AM 12.9 °F 2.6 °F 10.0 °F 88% 30.05 in 3.0 mi SSW 6.9 mph - 0.00 in Snow Light Snow
6:08 AM 12.9 °F -0.2 °F 10.0 °F 88% 29.92 in 2.5 mi SSW 10.4 mph - 0.00 in Snow Light Snow
6:22 AM 12.9 °F -0.2 °F 10.0 °F 88% 29.92 in 1.8 mi SSW 10.4 mph - 0.00 in Snow Light Snow
6:34 AM 12.9 °F -0.9 °F 10.0 °F 88% 29.92 in 1.0 mi SSW 11.5 mph - 0.00 in Snow Light Snow
6:48 AM 12.9 °F -0.2 °F 10.0 °F 88% 30.08 in 2.0 mi SSW 10.4 mph - 0.01 in Snow Light Snow
6:58 AM 12.9 °F -2.2 °F 9.0 °F 84% 29.93 in 3.0 mi SSW 13.8 mph - 0.00 in Snow Light Snow
7:15 AM 12.0 °F -3.4 °F 9.0 °F 88% 29.93 in 2.0 mi SSW 13.8 mph - 0.00 in Snow Light Snow
7:22 AM 12.9 °F -0.9 °F 9.0 °F 84% 29.93 in 1.8 mi SSW 11.5 mph - 0.00 in Snow Light Snow
7:33 AM 12.0 °F -4.0 °F 9.0 °F 88% 29.93 in 1.2 mi SSW 15.0 mph - 0.00 in Snow Light Snow
7:53 AM 12.0 °F -2.7 °F 9.0 °F 88% 30.11 in 1.2 mi SSW 12.7 mph - 0.00 in Snow Light Snow
8:05 AM 12.0 °F -3.4 °F 8.1 °F 84% 29.94 in 1.5 mi SSW 13.8 mph - 0.00 in Snow Light Snow
8:16 AM 10.9 °F -2.6 °F 7.0 °F 84% 29.94 in 2.5 mi South 10.4 mph - 0.00 in Snow Light Snow
8:24 AM 10.9 °F -3.4 °F 8.1 °F 88% 29.95 in 4.0 mi SSW 11.5 mph - 0.00 in   Overcast
8:53 AM 12.0 °F -2.0 °F 7.0 °F 80% 30.13 in 7.0 mi SSW 11.5 mph - 0.00 in   Overcast
9:07 AM 12.0 °F -2.0 °F 7.0 °F 80% 29.96 in 2.0 mi SSW 11.5 mph - 0.00 in Snow Light Snow
9:36 AM 12.0 °F -2.7 °F 7.0 °F 80% 29.95 in 4.0 mi SSW 12.7 mph - 0.00 in Snow Light Snow
9:53 AM 10.9 °F -4.7 °F 7.0 °F 84% 30.14 in 5.0 mi SSW 13.8 mph - 0.00 in Snow Light Snow
10:05 AM 10.9 °F -4.1 °F 6.1 °F 81% 29.96 in 5.0 mi SSW 12.7 mph - 0.00 in Snow Light Snow
10:16 AM 12.0 °F -3.4 °F 7.0 °F 80% 29.96 in 4.0 mi SSW 13.8 mph - 0.00 in Snow Light Snow
10:33 AM 10.9 °F -2.6 °F 7.0 °F 84% 29.94 in 2.5 mi SSW 10.4 mph - 0.00 in Snow Light Snow
10:46 AM 12.0 °F -2.7 °F 7.0 °F 80% 29.93 in 3.0 mi South 12.7 mph - 0.00 in Snow Light Snow
10:53 AM 12.0 °F -1.3 °F 6.1 °F 77% 30.10 in 4.0 mi SSW 10.4 mph - 0.00 in Snow Light Snow
11:06 AM 12.0 °F -3.4 °F 7.0 °F 80% 29.93 in 4.0 mi SSW 13.8 mph - 0.00 in Snow Light Snow
11:25 AM 12.0 °F -2.0 °F 6.1 °F 77% 29.90 in 10.0 mi South 11.5 mph - 0.00 in   Overcast
11:53 AM 12.0 °F -2.7 °F 7.0 °F 80% 30.07 in 5.0 mi SSW 12.7 mph - 0.00 in Snow Light Snow
12:53 PM 12.0 °F -3.4 °F 6.1 °F 77% 30.05 in 6.0 mi South 13.8 mph - 0.00 in   Haze
1:14 PM 12.9 °F -0.2 °F 7.0 °F 77% 29.86 in 1.8 mi South 10.4 mph - 0.00 in Snow Light Snow
1:38 PM 12.0 °F -2.7 °F 7.0 °F 80% 29.86 in 2.5 mi South 12.7 mph - 0.01 in Snow Light Snow
1:49 PM 12.2 °F -1.8 °F 6.8 °F 79% 29.87 in 5.0 mi South 11.5 mph - 0.01 in   Haze
1:53 PM 12.0 °F -2.0 °F 7.0 °F 80% 30.04 in 4.0 mi South 11.5 mph - 0.01 in Snow Light Snow
2:23 PM 12.0 °F -1.3 °F 7.0 °F 80% 29.87 in 2.5 mi South 10.4 mph - 0.00 in Snow Light Snow
2:49 PM 12.2 °F 0.7 °F 6.8 °F 79% 29.86 in 3.0 mi SSW 8.1 mph - 0.00 in Snow Light Snow
2:53 PM 12.0 °F -1.3 °F 7.0 °F 80% 30.04 in 4.0 mi SSW 10.4 mph - 0.00 in Snow Light Snow
3:09 PM 12.0 °F -1.3 °F 8.1 °F 84% 29.86 in 1.8 mi South 10.4 mph - 0.00 in Snow Light Snow
3:37 PM 12.0 °F -1.3 °F 7.0 °F 80% 29.86 in 1.5 mi South 10.4 mph - 0.00 in Snow Light Snow
3:53 PM 10.9 °F -1.8 °F 7.0 °F 84% 30.05 in 1.8 mi SSW 9.2 mph - 0.00 in Snow Light Snow
4:12 PM 10.9 °F -2.6 °F 7.0 °F 84% 29.87 in 2.5 mi South 10.4 mph - 0.00 in Snow Light Snow
4:33 PM 10.9 °F -2.6 °F 6.1 °F 81% 29.87 in 3.0 mi South 10.4 mph - 0.00 in Snow Light Snow
4:41 PM 10.0 °F -3.7 °F 6.1 °F 84% 29.86 in 2.5 mi South 10.4 mph - 0.00 in Snow Light Snow
4:51 PM 10.4 °F -2.4 °F 6.8 °F 85% 29.86 in 3.0 mi South 9.2 mph - 0.00 in Snow Light Snow
4:53 PM 10.0 °F -2.9 °F 6.1 °F 84% 30.06 in 4.0 mi South 9.2 mph - 0.00 in Snow Light Snow
5:53 PM 10.0 °F -1.9 °F 6.1 °F 84% 30.08 in 3.0 mi South 8.1 mph - 0.00 in Snow Light Snow
6:53 PM 9.0 °F -0.9 °F 5.0 °F 84% 30.09 in 5.0 mi SW 5.8 mph - 0.00 in Snow Light Snow
7:01 PM 9.0 °F 0.6 °F 5.0 °F 84% 29.89 in 5.0 mi SW 4.6 mph - 0.00 in Snow Light Snow
7:53 PM 9.0 °F 0.6 °F 5.0 °F 84% 30.10 in 5.0 mi SSW 4.6 mph - 0.00 in Snow Light Snow
8:53 PM 9.0 °F 2.4 °F 5.0 °F 84% 30.11 in 4.0 mi Variable 3.5 mph - 0.00 in Snow Light Snow
9:53 PM 9.0 °F 2.4 °F 3.9 °F 80% 30.13 in 5.0 mi South 3.5 mph - 0.00 in Snow Light Snow
10:53 PM 8.1 °F -4.3 °F 3.9 °F 83% 30.13 in 5.0 mi South 8.1 mph - 0.00 in Snow Light Snow
11:53 PM 7.0 °F - 3.9 °F 87% 30.14 in 8.0 mi Calm Calm - 0.00 in   Overcast